"Pseudo-MPEC" for CEJH8M2

Created 2026 Apr 16 23:35:08 UT using Find_Orb

Click here for an explanation of pseudo-MPECs

 
 Astrometry: 
     CEJH8M2*1C2026 04 16.31179413 38 01.612+10 40 51.10   ~4G8K 21.13GVNEOCPG96
     CEJH8M2 1C2026 04 16.31696113 38 00.816+10 41 09.24   ~4G8K 21.57GVNEOCPG96
     CEJH8M2 1C2026 04 16.32210513 37 59.995+10 41 26.88   ~4G8K 21.79GVNEOCPG96
     CEJH8M2 1C2026 04 16.32725313 37 59.250+10 41 43.87   ~4G8K 21.59GVNEOCPG96
     CEJH8M2  C2026 04 16.34577613 37 56.286+10 42 46.98   ~4G95 21.3 GWNEOCPH01
     CEJH8M2  C2026 04 16.34894413 37 55.796+10 42 57.73   ~4G95 21.4 GWNEOCPH01
     CEJH8M2  C2026 04 16.36263113 37 53.674+10 43 44.26   ~4G95 21.2 GWNEOCPH01
     CEJH8M2  C2026 04 16.37132913 37 52.321+10 44 13.94   ~4G95 21.4 GWNEOCPH01
     CEJH8M2 1C2026 04 16.42667713 37 43.777+10 47 22.34   ~4GAo       VNEOCPV06
     CEJH8M2 1C2026 04 16.42935813 37 43.352+10 47 31.49   ~4GAo 21.38GVNEOCPV06
     CEJH8M2 1C2026 04 16.43203813 37 42.960+10 47 40.81   ~4GAo 21.39GVNEOCPV06
     CEJH8M2 1C2026 04 16.43472213 37 42.532+10 47 49.81   ~4GAo 21.45GVNEOCPV06

Station data:
(G96) Mt. Lemmon Survey  (N32.442729 W110.788720)  US/Arizona.  Observer E.
   J. Christensen. Measurers T. Beuden, V. F. Carvajal, D. Fay, J. B.
   Fazekas, D. C. Fuls, A. R. Gibbs, A. D. Grauer, H. Gröller, J. K. Hogan,
   R. A. Kowalski, S. M. Larson, G. J. Leonard, D. Rankin, R. L. Seaman, F.
   C. Shelly, K. W. Wierzchoś. 1.5-m reflector + 10K CCD.
(H01) Magdalena Ridge Observatory, Socorro  (N33.984833 W107.189333)  US/New
   Mexico.  Observers W. H. Ryan, E. V. Ryan. Measurer W. H. Ryan. 2.4-m
   f/8.9 reflector + CCD.
(V06) Catalina Sky Survey-Kuiper  (N32.416871 W110.732550)  US/Arizona.
   Measurers T. Beuden, V. F. Carvajal, D. Fay, J. B. Fazekas, D. C. Fuls, A.
   R. Gibbs, A. D. Grauer, H. Gröller, J. K. Hogan, R. A. Kowalski, S. M.
   Larson, G. J. Leonard, D. Rankin, R. L. Seaman, F. C. Shelly, K. W.
   Wierzchoś. 1.55-m reflector + CCD.

Orbital elements:  CEJH8M2
   Perihelion 2026 Jul 25.917434 +/- 141 TT = 22:01:06.3 (JD 2461247.417434)
Epoch 2026 Apr 16.0 TT = JDT 2461146.5   Earth MOID: 0.4328      AutoNEOCP
M 324.604636371 +/- 80              (J2000 ecliptic)
n   0.350735866 +/- 0.295           Peri.  144.852867 +/- 70
a   1.991357634 +/- 1.12            Node   195.289297 +/- 7
e   0.77839199 +/- 0.212            Incl.   46.852366 +/- 28
P   2.81011                H 20.53  G  0.15   U 11.9  SR
q 0.441300790 +/- 0.503    Q 3.541414477 +/- 6.1
From 12 observations 2026 Apr. 16 (3.0 hr); mean residual 0".19
Residuals in arcseconds: 
260416 G96  .06-  .41-    260416 H01  .12-  .13+    260416 V06  .01+  .13-    
260416 G96  .05+  .14+    260416 H01  .09-  .10+    260416 V06  .14-  .10-    
260416 G96  .27-  .27+    260416 H01  .04-  .05+    260416 V06  .19+  .10+    
260416 G96  .55+  .26-    260416 H01  .09-  .14+    260416 V06  .01+  .03-    

Ephemerides (geocentric):
Date (UTC) HH   RA             Dec           delta  r     elong  mag " sig PA
---- --------  ------------   ------------  ------ ------ -----  --- --------
2026 04 17 00  13 36 16.671   +11 20 10.10  .71608 1.6901 158.4 21.7 25.1  68
2026 04 17 01  13 36 10.250   +11 22 33.31  .71575 1.6897 158.3 21.7 27.6  63
2026 04 17 02  13 36 03.822   +11 24 56.60  .71543 1.6892 158.3 21.7 30.4  58
2026 04 17 03  13 35 57.387   +11 27 19.97  .71511 1.6888 158.2 21.7 33.4  54
2026 04 17 04  13 35 50.944   +11 29 43.42  .71479 1.6883 158.2 21.7 36.7  51
2026 04 17 05  13 35 44.494   +11 32 06.94  .71448 1.6878 158.1 21.7 40.2  49
2026 04 17 06  13 35 38.036   +11 34 30.53  .71416 1.6874 158.0 21.7 43.9  46
2026 04 17 07  13 35 31.571   +11 36 54.20  .71384 1.6869 158.0 21.7 47.9  45
2026 04 17 08  13 35 25.099   +11 39 17.95  .71353 1.6865 157.9 21.7 52.0  43
2026 04 17 09  13 35 18.619   +11 41 41.77  .71321 1.6860 157.9 21.7 56.4  42
2026 04 17 10  13 35 12.131   +11 44 05.66  .71290 1.6856 157.8 21.7 60.9  41
2026 04 17 11  13 35 05.637   +11 46 29.62  .71258 1.6851 157.8 21.7 65.6  40
2026 04 17 12  13 34 59.134   +11 48 53.66  .71227 1.6846 157.7 21.7 70.5  40
2026 04 17 13  13 34 52.625   +11 51 17.78  .71196 1.6842 157.6 21.7 75.7  39
2026 04 17 14  13 34 46.107   +11 53 41.96  .71165 1.6837 157.6 21.7 81.0  39
2026 04 17 15  13 34 39.583   +11 56 06.22  .71134 1.6833 157.5 21.7 86.4  38
2026 04 17 16  13 34 33.051   +11 58 30.54  .71103 1.6828 157.5 21.7 92.1  38
2026 04 17 17  13 34 26.512   +12 00 54.94  .71072 1.6823 157.4 21.7 98.0  37
2026 04 17 18  13 34 19.965   +12 03 19.41  .71041 1.6819 157.3 21.7  104  37
2026 04 17 19  13 34 13.411   +12 05 43.95  .71010 1.6814 157.3 21.7  110  37
2026 04 17 20  13 34 06.850   +12 08 08.56  .70979 1.6810 157.2 21.7  117  37
2026 04 17 21  13 34 00.281   +12 10 33.24  .70949 1.6805 157.2 21.7  123  36
2026 04 17 22  13 33 53.705   +12 12 57.99  .70918 1.6801 157.1 21.7  130  36
2026 04 17 23  13 33 47.121   +12 15 22.81  .70888 1.6796 157.0 21.7  137  36
2026 04 18 00  13 33 40.530   +12 17 47.69  .70858 1.6791 157.0 21.7  144  36
2026 04 18 01  13 33 33.932   +12 20 12.65  .70827 1.6787 156.9 21.7  151  36
2026 04 18 02  13 33 27.326   +12 22 37.67  .70797 1.6782 156.9 21.7  159  35
2026 04 18 03  13 33 20.713   +12 25 02.76  .70767 1.6778 156.8 21.7  167  35
2026 04 18 04  13 33 14.093   +12 27 27.92  .70737 1.6773 156.7 21.7  174  35
2026 04 18 05  13 33 07.466   +12 29 53.14  .70707 1.6768 156.7 21.7  183  35
2026 04 18 06  13 33 00.831   +12 32 18.43  .70677 1.6764 156.6 21.7  191  35
2026 04 18 07  13 32 54.188   +12 34 43.78  .70648 1.6759 156.5 21.7  199  35
2026 04 18 08  13 32 47.539   +12 37 09.20  .70618 1.6755 156.5 21.7  208  35
2026 04 18 09  13 32 40.882   +12 39 34.69  .70588 1.6750 156.4 21.7  216  35
2026 04 18 10  13 32 34.218   +12 42 00.24  .70559 1.6745 156.4 21.7  225  35
2026 04 18 11  13 32 27.547   +12 44 25.85  .70529 1.6741 156.3 21.7  235  35
2026 04 18 12  13 32 20.868   +12 46 51.53  .70500 1.6736 156.2 21.7  244  35
2026 04 18 13  13 32 14.182   +12 49 17.28  .70471 1.6732 156.2 21.7  253  34
2026 04 18 14  13 32 07.489   +12 51 43.08  .70441 1.6727 156.1 21.7  263  34
2026 04 18 15  13 32 00.788   +12 54 08.95  .70412 1.6722 156.0 21.7  273  34
2026 04 18 16  13 31 54.081   +12 56 34.88  .70383 1.6718 156.0 21.7  283  34
2026 04 18 17  13 31 47.366   +12 59 00.87  .70354 1.6713 155.9 21.7  293  34
2026 04 18 18  13 31 40.644   +13 01 26.92  .70325 1.6708 155.9 21.7  303  34
2026 04 18 19  13 31 33.914   +13 03 53.04  .70297 1.6704 155.8 21.7  314  34
2026 04 18 20  13 31 27.177   +13 06 19.21  .70268 1.6699 155.7 21.7  325  34
2026 04 18 21  13 31 20.434   +13 08 45.45  .70239 1.6695 155.7 21.7  335  34
2026 04 18 22  13 31 13.682   +13 11 11.75  .70211 1.6690 155.6 21.7  346  34
2026 04 18 23  13 31 06.924   +13 13 38.10  .70182 1.6685 155.5 21.7  358  34